This is the latest recevied weather packets stored in our database for station/object M0JUI-1. If no packets are shown the sender has not sent any weather packets the latest 10 day(s).
| Time | Temp. | Humidity | Pressure | Rain* | Wind** | Luminosity | Snow |
|---|---|---|---|---|---|---|---|
| 1778311047 | 11.11° C | 1% | 1020.1 hPa | 0 mm | - | 78 W/m² | - |
| 1778310747 | 11.11° C | 1% | 1020 hPa | 0 mm | - | 69 W/m² | - |
| 1778310448 | 11.11° C | 1% | 1020.2 hPa | 0 mm | - | 63 W/m² | - |
| 1778310148 | 10.56° C | 1% | 1020.1 hPa | 0 mm | - | 52 W/m² | - |
| 1778309847 | 10.56° C | 1% | 1020.1 hPa | 0 mm | - | 46 W/m² | - |
| 1778309548 | 10.56° C | 1% | 1020.1 hPa | 0 mm | - | 46 W/m² | - |
| 1778309248 | 10.56° C | 1% | 1020 hPa | 0 mm | - | 47 W/m² | - |
| 1778308947 | 10.56° C | 1% | 1020 hPa | 0 mm | - | 47 W/m² | - |
| 1778308647 | 10.56° C | 1% | 1020 hPa | 0 mm | - | 46 W/m² | - |
| 1778308349 | 11.11° C | 99% | 1019.9 hPa | 0 mm | - | 49 W/m² | - |
| 1778308047 | 10.56° C | 99% | 1020 hPa | 0 mm | - | 47 W/m² | - |
| 1778307748 | 10.56° C | 99% | 1019.9 hPa | 0 mm | - | 48 W/m² | - |
| 1778307447 | 10.56° C | 99% | 1019.8 hPa | 0 mm | - | 62 W/m² | - |
| 1778307148 | 10.56° C | 99% | 1019.7 hPa | 0 mm | - | 65 W/m² | - |
| 1778306847 | 10.56° C | 99% | 1019.6 hPa | 0 mm | - | 68 W/m² | - |
| 1778306547 | 10.56° C | 99% | 1019.7 hPa | 0 mm | - | 64 W/m² | - |
| 1778306247 | 10.56° C | 99% | 1019.5 hPa | 0 mm | - | 61 W/m² | - |
| 1778305947 | 10.56° C | 1% | 1019.6 hPa | 0 mm | - | 50 W/m² | - |
| 1778305648 | 10.56° C | 1% | 1019.6 hPa | 0 mm | - | 42 W/m² | - |
| 1778305348 | 10° C | 1% | 1019.4 hPa | 0 mm | - | 35 W/m² | - |
| 1778305047 | 10° C | 1% | 1019.4 hPa | 0 mm | - | 34 W/m² | - |
| 1778304747 | 10° C | 1% | 1019.7 hPa | 0 mm | - | 32 W/m² | - |
| 1778304435 | 10° C | 1% | 1019.5 hPa | 0 mm | - | 28 W/m² | - |
| 1778304135 | 10° C | 1% | 1019.3 hPa | 0 mm | - | 26 W/m² | - |
| 1778303835 | 10° C | 1% | 1019.3 hPa | 0 mm | - | 25 W/m² | - |
* Rain latest hour (hover to see other rain measurements)
** Current wind speed in m/s (hover to see current wind gust speed)